Weather History for KAFO - April, 2014

Change the Weather History Date:

Thursday, April 24, 2014

  Actual Average Record
Temperature  
Mean Temperature 34 °F -  
Max Temperature 46 °F 56 °F 50 °F (2015)
Min Temperature 23 °F 26 °F 23 °F (2014)
Degree Days  
Heating Degree Days 30    
Moisture  
Dew Point 24 °F    
Average Humidity 62    
Maximum Humidity 93    
Minimum Humidity 39    
Precipitation  
Precipitation 0.00 in - - ()
Sea Level Pressure  
Sea Level Pressure 30.01 in    
Wind  
Wind Speed 3 mph (South)    
Max Wind Speed 15 mph    
Max Gust Speed 23 mph    
Visibility 10 miles    
Events      
Averages and records for this station are not official NWS values.
T = Trace of Precipitation, MM = Missing Value Source: NWS Daily Summary

Daily Weather History Graph

Daily Weather History Graph

Search for Another Location

Airport or City:

Trip Planner

Search our weather history database for the weather conditions in past years. The results will help you decide how hot, cold, wet, or windy it might be!

Date:

Astronomy

Apr. 24, 2014 Rise Set
Actual Time 6:28 AM MDT 8:16 PM MDT
Civil Twilight 5:58 AM MDT 8:46 PM MDT
Nautical Twilight 5:21 AM MDT 9:23 PM MDT
Astronomical Twilight 4:41 AM MDT 10:03 PM MDT
Moon 3:48 AM MDT (4/24) 3:29 PM MDT (4/24)
Length of Visible Light 14h 48m
Length of Day
13h 48m
Waning Crescent, 24% of the Moon is Illuminated
Apr 24
Waning Crescent
Apr 29
New
May 6
First Quarter
May 14
Full
May 21
Last Quarter

Hourly Weather History & Observations

Time (MDT) Temp. Windchill Dew Point Humidity Pressure Visibility Wind Dir Wind Speed Gust Speed Precip Events Conditions
12:15 AM 32.0 °F 26.4 °F 21.2 °F 64% 30.05 in 10.0 mi ESE 5.8 mph - N/A   Clear
12:35 AM 30.2 °F - 21.2 °F 69% 30.05 in 10.0 mi Calm Calm - N/A   Clear
12:55 AM 32.0 °F 27.5 °F 21.2 °F 64% 30.05 in 10.0 mi ESE 4.6 mph - N/A   Clear
1:15 AM 32.0 °F - 21.2 °F 64% 30.06 in 10.0 mi Calm Calm - N/A   Clear
1:35 AM 30.2 °F - 21.2 °F 69% 30.05 in 10.0 mi Calm Calm - N/A   Clear
1:55 AM 30.2 °F - 21.2 °F 69% 30.05 in 10.0 mi Calm Calm - N/A   Clear
2:15 AM 30.2 °F - 21.2 °F 69% 30.05 in 10.0 mi Calm Calm - N/A   Clear
2:35 AM 26.6 °F - 21.2 °F 80% 30.04 in 10.0 mi Calm Calm - N/A   Clear
2:55 AM 28.4 °F - 21.2 °F 74% 30.04 in 10.0 mi Calm Calm - N/A   Clear
3:15 AM 28.4 °F 24.6 °F 21.2 °F 74% 30.04 in 10.0 mi SSE 3.5 mph - N/A   Clear
3:35 AM 28.4 °F - 21.2 °F 74% 30.04 in 10.0 mi Calm Calm - N/A   Clear
3:55 AM 26.6 °F - 21.2 °F 80% 30.04 in 10.0 mi Calm Calm - N/A   Clear
4:15 AM 23.0 °F - 19.4 °F 86% 30.04 in 10.0 mi Calm Calm - N/A   Clear
4:35 AM 26.6 °F - 21.2 °F 80% 30.04 in 10.0 mi Calm Calm - N/A   Clear
4:55 AM 23.0 °F - 21.2 °F 93% 30.03 in 10.0 mi Calm Calm - N/A   Clear
5:15 AM 24.8 °F 19.1 °F 21.2 °F 86% 30.03 in 10.0 mi West 4.6 mph - N/A   Clear
5:35 AM 24.8 °F - 21.2 °F 86% 30.03 in 10.0 mi Calm Calm - N/A   Clear
5:55 AM 23.0 °F - 19.4 °F 86% 30.04 in 10.0 mi Calm Calm - N/A   Clear
6:15 AM 26.6 °F - 21.2 °F 80% 30.03 in 10.0 mi Calm Calm - N/A   Scattered Clouds
6:35 AM 26.6 °F - 21.2 °F 80% 30.03 in 10.0 mi Calm Calm - N/A   Mostly Cloudy
6:55 AM 26.6 °F - 21.2 °F 80% 30.04 in 10.0 mi Calm Calm - N/A   Overcast
7:15 AM 28.4 °F - 21.2 °F 74% 30.05 in 10.0 mi Calm Calm - N/A   Overcast
7:35 AM 28.4 °F 24.6 °F 23.0 °F 80% 30.05 in 10.0 mi SSE 3.5 mph - N/A   Overcast
7:55 AM 30.2 °F - 23.0 °F 75% 30.05 in 10.0 mi Calm Calm - N/A   Mostly Cloudy
8:15 AM 30.2 °F - 23.0 °F 75% 30.05 in 10.0 mi Calm Calm - N/A   Overcast
8:35 AM 32.0 °F - 24.8 °F 75% 30.04 in 10.0 mi Calm Calm - N/A   Mostly Cloudy
8:55 AM 32.0 °F 28.7 °F 26.6 °F 80% 30.05 in 10.0 mi North 3.5 mph - N/A   Mostly Cloudy
9:15 AM 33.8 °F - 26.6 °F 75% 30.04 in 10.0 mi Calm Calm - N/A   Mostly Cloudy
9:35 AM 37.4 °F 34.9 °F 24.8 °F 60% 30.04 in 10.0 mi South 3.5 mph - N/A   Mostly Cloudy
9:55 AM 41.0 °F 37.1 °F 23.0 °F 49% 30.03 in 10.0 mi South 5.8 mph - N/A   Scattered Clouds
10:15 AM 41.0 °F 35.2 °F 21.2 °F 45% 30.02 in 10.0 mi SSE 9.2 mph - N/A   Scattered Clouds
10:35 AM 41.0 °F 34.7 °F 21.2 °F 45% 30.03 in 10.0 mi SSE 10.4 mph - N/A   Scattered Clouds
10:55 AM 42.8 °F 36.6 °F 21.2 °F 42% 30.03 in 10.0 mi SE 11.5 mph 18.4 mph N/A   Clear
11:15 AM 42.8 °F 40.1 °F 21.2 °F 42% 30.02 in 10.0 mi SE 4.6 mph - N/A   Clear
11:35 AM 42.8 °F 36.6 °F 21.2 °F 42% 30.02 in 10.0 mi SSE 11.5 mph 16.1 mph N/A   Clear
11:55 AM 42.8 °F 38.6 °F 21.2 °F 42% 30.01 in 10.0 mi South 6.9 mph 20.7 mph N/A   Clear
12:15 PM 42.8 °F 35.8 °F 21.2 °F 42% 30.01 in 10.0 mi SSE 13.8 mph 17.3 mph N/A   Scattered Clouds
12:35 PM 42.8 °F - 23.0 °F 46% 30.01 in 10.0 mi Calm Calm - N/A   Scattered Clouds
12:55 PM 44.6 °F 39.2 °F 21.2 °F 39% 30.00 in 10.0 mi SSW 10.4 mph - N/A   Mostly Cloudy
1:15 PM 42.8 °F 37.0 °F 23.0 °F 46% 30.01 in 10.0 mi SSW 10.4 mph - N/A   Scattered Clouds
1:35 PM 42.8 °F 36.2 °F 23.0 °F 46% 30.01 in 10.0 mi SW 12.7 mph 20.7 mph N/A   Scattered Clouds
1:55 PM 42.8 °F 35.4 °F 23.0 °F 46% 30.02 in 10.0 mi WSW 15.0 mph 23.0 mph N/A   Scattered Clouds
2:15 PM 42.8 °F 38.6 °F 23.0 °F 46% 30.02 in 10.0 mi SW 6.9 mph - N/A   Scattered Clouds
2:35 PM 42.8 °F 38.0 °F 23.0 °F 46% 30.02 in 10.0 mi West 8.1 mph - N/A   Scattered Clouds
2:55 PM 42.8 °F 38.0 °F 26.6 °F 53% 30.02 in 10.0 mi WNW 8.1 mph - N/A   Scattered Clouds
3:15 PM 42.8 °F 38.6 °F 26.6 °F 53% 30.02 in 10.0 mi SW 6.9 mph - N/A   Scattered Clouds
3:35 PM 42.8 °F - 26.6 °F 53% 30.01 in 10.0 mi Calm Calm - N/A   Clear
3:55 PM 42.8 °F 40.1 °F 26.6 °F 53% 30.00 in 10.0 mi SSE 4.6 mph - N/A   Clear
4:15 PM 42.8 °F 40.1 °F 26.6 °F 53% 30.00 in 10.0 mi SE 4.6 mph - N/A   Clear
4:35 PM 42.8 °F - 26.6 °F 53% 29.99 in 10.0 mi Calm Calm - N/A   Scattered Clouds
4:55 PM 44.6 °F 42.2 °F 26.6 °F 49% 29.98 in 10.0 mi SE 4.6 mph - N/A   Scattered Clouds
5:15 PM 44.6 °F - 24.8 °F 46% 29.98 in 10.0 mi Calm Calm - N/A   Scattered Clouds
5:35 PM 44.6 °F - 26.6 °F 49% 29.98 in 10.0 mi Calm Calm - N/A   Clear
5:55 PM 46.4 °F - 26.6 °F 46% 29.97 in 10.0 mi Calm Calm - N/A   Clear
6:15 PM 46.4 °F - 26.6 °F 46% 29.97 in 10.0 mi Calm Calm - N/A   Clear
6:35 PM 46.4 °F 44.3 °F 26.6 °F 46% 29.97 in 10.0 mi SE 4.6 mph - N/A   Scattered Clouds
6:55 PM 46.4 °F 41.9 °F 26.6 °F 46% 29.96 in 10.0 mi SSE 9.2 mph - N/A   Scattered Clouds
7:15 PM 46.4 °F 42.4 °F 26.6 °F 46% 29.96 in 10.0 mi SW 8.1 mph - N/A   Scattered Clouds
7:35 PM 46.4 °F - 26.6 °F 46% 29.97 in 10.0 mi Calm Calm - N/A   Scattered Clouds
8:15 PM 44.6 °F 42.2 °F 26.6 °F 49% 29.97 in 10.0 mi SSE 4.6 mph - N/A   Clear
8:35 PM 42.8 °F - 28.4 °F 57% 29.97 in 10.0 mi Calm Calm - N/A   Clear
8:55 PM 42.8 °F - 28.4 °F 57% 29.98 in 10.0 mi Calm Calm - N/A   Clear
9:15 PM 42.8 °F 41.1 °F 28.4 °F 57% 29.97 in 10.0 mi NNW 3.5 mph - N/A   Clear
9:35 PM 41.0 °F - 28.4 °F 61% 29.98 in 10.0 mi Calm Calm - N/A   Scattered Clouds
9:55 PM 41.0 °F - 28.4 °F 61% 29.98 in 10.0 mi Calm Calm - N/A   Scattered Clouds
10:15 PM 41.0 °F 36.4 °F 28.4 °F 61% 29.98 in 10.0 mi North 6.9 mph - N/A   Clear
10:35 PM 37.4 °F 32.8 °F 30.2 °F 75% 29.98 in 10.0 mi West 5.8 mph - N/A   Clear
10:55 PM 37.4 °F 32.8 °F 30.2 °F 75% 29.97 in 10.0 mi North 5.8 mph - N/A   Clear
11:15 PM 37.4 °F 33.8 °F 30.2 °F 75% 29.97 in 10.0 mi North 4.6 mph - N/A   Clear
11:35 PM 37.4 °F - 30.2 °F 75% 29.96 in 10.0 mi Calm Calm - N/A   Clear
11:55 PM 35.6 °F - 30.2 °F 81% 29.95 in 10.0 mi Calm Calm - N/A   Clear